• en France
  • Liste des pays
  • À 7 jours
  • Température de l'eau
  • Carte satellitaire
  • Carte météo
  • Widgets météo
  • user-avatar
    Se connecter

    Météo par heure à Shamilkala

    Ce jour, 21 Août, Mardi

    Heure Température Précipitation Vent Pression Humidité
    00:00 +18°C° 0 mm 2 m/s 711 mmHg 75%
    01:00 +18°C° 0 mm 2 m/s 710 mmHg 74%
    02:00 +17°C° 0 mm 3 m/s 710 mmHg 73%
    03:00 +17°C° 0 mm 3 m/s 710 mmHg 75%
    04:00 +18°C° 0 mm 3 m/s 710 mmHg 74%
    05:00 +18°C° 0 mm 3 m/s 710 mmHg 73%
    06:00 +18°C° 0 mm 3 m/s 710 mmHg 72%
    07:00 +20°C° 0 mm 3 m/s 710 mmHg 65%
    08:00 +24°C° 0 mm 3 m/s 711 mmHg 58%
    09:00 +26°C° 0 mm 3 m/s 711 mmHg 51%
    10:00 +27°C° 0 mm 3 m/s 711 mmHg 49%
    11:00 +28°C° 0 mm 3 m/s 711 mmHg 48%
    12:00 +29°C° 0 mm 4 m/s 711 mmHg 46%
    13:00 +29°C° 0,1 mm 4 m/s 710 mmHg 48%
    14:00 +29°C° 0,1 mm 4 m/s 710 mmHg 50%
    15:00 +29°C° 0,1 mm 4 m/s 710 mmHg 52%
    16:00 +28°C° 0,1 mm 3 m/s 710 mmHg 58%
    17:00 +26°C° 0,1 mm 3 m/s 710 mmHg 63%
    18:00 +25°C° 0,1 mm 2 m/s 710 mmHg 69%
    19:00 +24°C° 0 mm 2 m/s 709 mmHg 73%
    20:00 +23°C° 0 mm 2 m/s 709 mmHg 76%
    21:00 +21°C° 0 mm 2 m/s 709 mmHg 80%
    22:00 +20°C° 0 mm 2 m/s 709 mmHg 78%
    23:00 +20°C° 0 mm 2 m/s 709 mmHg 76%

    Demain, 22 Août, Mercredi

    Heure Température Précipitation Vent Pression Humidité
    00:00 +20°C° 0 mm 2 m/s 709 mmHg 74%
    01:00 +20°C° 0 mm 2 m/s 709 mmHg 71%
    02:00 +20°C° 0 mm 2 m/s 709 mmHg 68%
    03:00 +19°C° 0 mm 2 m/s 708 mmHg 66%
    04:00 +20°C° 0 mm 2 m/s 709 mmHg 64%
    05:00 +20°C° 0 mm 2 m/s 709 mmHg 61%
    06:00 +21°C° 0 mm 2 m/s 709 mmHg 59%
    07:00 +23°C° 0 mm 1 m/s 709 mmHg 55%
    08:00 +25°C° 0 mm 1 m/s 709 mmHg 51%
    09:00 +27°C° 0 mm 1 m/s 709 mmHg 47%
    10:00 +28°C° 0 mm 2 m/s 709 mmHg 47%
    11:00 +29°C° 0 mm 2 m/s 709 mmHg 46%
    12:00 +30°C° 0 mm 2 m/s 709 mmHg 46%
    13:00 +29°C° 0,3 mm 2 m/s 709 mmHg 48%
    14:00 +29°C° 0,3 mm 3 m/s 709 mmHg 51%
    15:00 +29°C° 0,3 mm 3 m/s 708 mmHg 53%
    16:00 +28°C° 0,4 mm 2 m/s 708 mmHg 58%
    17:00 +27°C° 0,4 mm 2 m/s 709 mmHg 64%
    18:00 +26°C° 0,4 mm 1 m/s 709 mmHg 69%
    19:00 +25°C° 0,3 mm 1 m/s 709 mmHg 72%
    20:00 +24°C° 0,3 mm 1 m/s 709 mmHg 74%
    21:00 +23°C° 0,3 mm 1 m/s 709 mmHg 77%
    22:00 +23°C° 0,3 mm 2 m/s 709 mmHg 77%
    23:00 +21°C° 0,3 mm 2 m/s 709 mmHg 78%

    Après-demain, 23 Août, Jeudi

    Heure Température Précipitation Vent Pression Humidité
    00:00 +21°C° 0,3 mm 2 m/s 709 mmHg 78%
    01:00 +21°C° 0,1 mm 2 m/s 709 mmHg 78%
    02:00 +20°C° 0,1 mm 2 m/s 709 mmHg 78%
    03:00 +20°C° 0,1 mm 2 m/s 709 mmHg 78%
    04:00 +20°C° 0 mm 2 m/s 709 mmHg 77%
    05:00 +20°C° 0 mm 2 m/s 710 mmHg 76%
    06:00 +21°C° 0 mm 2 m/s 710 mmHg 75%
    07:00 +23°C° 0 mm 2 m/s 710 mmHg 69%
    08:00 +25°C° 0 mm 2 m/s 710 mmHg 62%
    09:00 +27°C° 0 mm 2 m/s 711 mmHg 55%
    10:00 +28°C° 0,1 mm 2 m/s 711 mmHg 54%
    11:00 +28°C° 0,1 mm 3 m/s 711 mmHg 52%
    12:00 +29°C° 0,1 mm 3 m/s 711 mmHg 50%
    13:00 +29°C° 0,4 mm 3 m/s 711 mmHg 52%
    14:00 +28°C° 0,4 mm 3 m/s 710 mmHg 53%
    15:00 +28°C° 0,4 mm 3 m/s 710 mmHg 55%
    16:00 +27°C° 0,1 mm 3 m/s 710 mmHg 59%
    17:00 +26°C° 0,1 mm 2 m/s 710 mmHg 63%
    18:00 +25°C° 0,1 mm 2 m/s 710 mmHg 67%
    19:00 +24°C° 0 mm 2 m/s 710 mmHg 72%
    20:00 +23°C° 0 mm 1 m/s 711 mmHg 76%
    21:00 +21°C° 0 mm 1 m/s 711 mmHg 81%
    22:00 +21°C° 0,1 mm 1 m/s 711 mmHg 80%
    23:00 +21°C° 0,1 mm 1 m/s 711 mmHg 80%

    24 Août, Vendredi

    Heure Température Précipitation Vent Pression Humidité
    00:00 +21°C° 0,1 mm 1 m/s 711 mmHg 79%
    01:00 +20°C° 0 mm 1 m/s 711 mmHg 79%
    02:00 +20°C° 0 mm 1 m/s 711 mmHg 78%
    03:00 +20°C° 0 mm 1 m/s 710 mmHg 78%
    04:00 +20°C° 0 mm 1 m/s 711 mmHg 77%
    05:00 +20°C° 0 mm 1 m/s 711 mmHg 77%
    06:00 +21°C° 0 mm 1 m/s 711 mmHg 76%
    07:00 +21°C° 0 mm 2 m/s 711 mmHg 71%
    08:00 +24°C° 0 mm 2 m/s 711 mmHg 65%
    09:00 +26°C° 0 mm 3 m/s 711 mmHg 59%
    10:00 +27°C° 0 mm 3 m/s 711 mmHg 58%
    11:00 +27°C° 0 mm 4 m/s 711 mmHg 57%
    12:00 +28°C° 0 mm 4 m/s 711 mmHg 56%
    13:00 +27°C° 0,1 mm 4 m/s 711 mmHg 58%
    14:00 +27°C° 0,1 mm 4 m/s 710 mmHg 61%
    15:00 +27°C° 0,1 mm 4 m/s 710 mmHg 63%
    16:00 +26°C° 0,1 mm 4 m/s 710 mmHg 66%
    17:00 +25°C° 0,1 mm 3 m/s 710 mmHg 70%
    18:00 +24°C° 0,1 mm 3 m/s 710 mmHg 73%
    19:00 +22°C° 0,1 mm 3 m/s 710 mmHg 76%
    20:00 +20°C° 0,1 mm 2 m/s 710 mmHg 79%
    21:00 +19°C° 0,1 mm 2 m/s 710 mmHg 81%
    22:00 +19°C° 0 mm 2 m/s 710 mmHg 80%
    23:00 +19°C° 0 mm 2 m/s 710 mmHg 79%

    25 Août, Samedi

    Heure Température Précipitation Vent Pression Humidité
    00:00 +19°C° 0 mm 2 m/s 710 mmHg 77%
    01:00 +18°C° 0 mm 2 m/s 710 mmHg 77%
    02:00 +18°C° 0 mm 2 m/s 710 mmHg 76%
    03:00 +18°C° 0 mm 2 m/s 709 mmHg 75%
    04:00 +18°C° 0 mm 2 m/s 709 mmHg 74%
    05:00 +18°C° 0 mm 2 m/s 709 mmHg 73%
    06:00 +19°C° 0 mm 2 m/s 709 mmHg 73%
    07:00 +21°C° 0 mm 2 m/s 710 mmHg 67%
    08:00 +24°C° 0 mm 3 m/s 710 mmHg 61%
    09:00 +26°C° 0 mm 3 m/s 710 mmHg 55%
    10:00 +27°C° 0 mm 3 m/s 710 mmHg 53%
    11:00 +28°C° 0 mm 4 m/s 710 mmHg 51%
    12:00 +29°C° 0 mm 4 m/s 710 mmHg 50%
    13:00 +28°C° 0 mm 4 m/s 710 mmHg 51%
    14:00 +28°C° 0 mm 4 m/s 709 mmHg 52%
    15:00 +28°C° 0 mm 4 m/s 709 mmHg 53%
    16:00 +27°C° 0 mm 4 m/s 709 mmHg 58%
    17:00 +26°C° 0 mm 4 m/s 709 mmHg 62%
    18:00 +24°C° 0 mm 3 m/s 709 mmHg 67%
    19:00 +22°C° 0 mm 3 m/s 709 mmHg 70%
    20:00 +21°C° 0 mm 3 m/s 709 mmHg 73%
    21:00 +20°C° 0 mm 2 m/s 709 mmHg 76%
    22:00 +20°C° 0 mm 2 m/s 709 mmHg 73%
    23:00 +19°C° 0 mm 2 m/s 709 mmHg 71%

    26 Août, Dimanche

    Heure Température Précipitation Vent Pression Humidité
    00:00 +19°C° 0 mm 2 m/s 708 mmHg 68%
    01:00 +19°C° 0 mm 2 m/s 708 mmHg 66%
    02:00 +19°C° 0 mm 2 m/s 708 mmHg 64%
    03:00 +19°C° 0 mm 2 m/s 708 mmHg 62%
    04:00 +19°C° 0 mm 2 m/s 708 mmHg 61%
    05:00 +19°C° 0 mm 2 m/s 708 mmHg 60%
    06:00 +19°C° 0 mm 2 m/s 708 mmHg 59%
    07:00 +22°C° 0 mm 3 m/s 708 mmHg 53%
    08:00 +25°C° 0 mm 3 m/s 708 mmHg 46%
    09:00 +28°C° 0 mm 3 m/s 708 mmHg 39%
    10:00 +29°C° 0 mm 3 m/s 708 mmHg 39%
    11:00 +30°C° 0 mm 4 m/s 708 mmHg 38%
    12:00 +32°C° 0 mm 4 m/s 708 mmHg 37%
    13:00 +32°C° 0 mm 4 m/s 707 mmHg 40%
    14:00 +30°C° 0 mm 5 m/s 707 mmHg 42%
    15:00 +30°C° 0 mm 5 m/s 707 mmHg 44%
    16:00 +29°C° 0 mm 4 m/s 706 mmHg 50%
    17:00 +27°C° 0 mm 4 m/s 706 mmHg 55%
    18:00 +26°C° 0 mm 3 m/s 706 mmHg 61%
    19:00 +25°C° 0 mm 3 m/s 706 mmHg 63%
    20:00 +22°C° 0 mm 3 m/s 706 mmHg 65%
    21:00 +21°C° 0 mm 2 m/s 706 mmHg 67%
    22:00 +21°C° 0 mm 2 m/s 706 mmHg 64%
    23:00 +21°C° 0 mm 2 m/s 706 mmHg 61%
    Voir plus